Nan, Thailand

10:41 PM +07 on August 16, 2017 (GMT +0700)
Nan

Weather History for VTCN - February, 2014

Change the Weather History Date:

Saturday, February 1, 2014

  Actual Average Record
Temperature  
Mean Temperature 74 °F -  
Max Temperature 92 °F 91 °F - ()
Min Temperature 57 °F 59 °F - ()
Cooling Degree Days 10    
Growing Degree Days 24 (Base 50)    
Moisture  
Dew Point 60 °F    
Average Humidity 61    
Maximum Humidity 100    
Minimum Humidity 29    
Precipitation  
Precipitation 0.00 in 0.02 in - ()
Sea Level Pressure  
Sea Level Pressure 29.89 in    
Wind  
Wind Speed 1 mph ()    
Max Wind Speed 4 mph    
Max Gust Speed -    
Visibility 4.7 miles    
Events      
T = Trace of Precipitation, MM = Missing Value Source: Averaged Metar Reports

Daily Weather History Graph

Daily Weather History Graph

Search for Another Location

Airport or City:

Trip Planner

Search our weather history database for the weather conditions in past years. The results will help you decide how hot, cold, wet, or windy it might be!

Date:

Astronomy

Feb. 01, 2014 Rise Set
Actual Time 6:50 AM +07 6:10 PM +07
Civil Twilight 6:28 AM +07 6:33 PM +07
Nautical Twilight 6:01 AM +07 6:59 PM +07
Astronomical Twilight 5:35 AM +07 7:25 PM +07
Moon 7:38 AM +07 (2/1) 7:45 PM +07 (2/1)
Length of Visible Light 12h 05m
Length of Day
11h 19m
Waxing Crescent, 3% of the Moon is Illuminated
Feb 1
Waxing Crescent
Feb 7
First Quarter
Feb 15
Full
Feb 23
Last Quarter
Mar 1
New

Hourly Weather History & Observations

Time (+07) Temp. Heat Index Dew Point Humidity Pressure Visibility Wind Dir Wind Speed Gust Speed Precip Events Conditions
1:00 AM 66 °F - 63 °F 86% 29.96 in 6 mi Calm Calm - -  
4:00 AM 63 °F - 60 °F 87% 29.94 in 4 mi Calm Calm - -   Mist
7:00 AM 60 °F - 59 °F 94% 29.96 in 2 mi Calm Calm - -   Mist
7:00 AM 57.2 °F - 57.2 °F 100% 29.95 in 1.2 mi North 2.3 mph - N/A   Mist
8:00 AM 60.8 °F - 60.8 °F 100% 29.95 in 1.9 mi North 2.3 mph - N/A   Mist
9:00 AM 68.0 °F - 60.8 °F 78% 29.98 in 2.2 mi Variable 2.3 mph - N/A   Mist
10:00 AM 73 °F - 63 °F 64% 29.99 in 6 mi Calm Calm - -   Mist
12:00 PM 82.4 °F 82.0 °F 57.2 °F 42% 29.95 in - Variable 2.3 mph - N/A   Clear
1:00 PM 86 °F - 63 °F 36% 29.88 in 7 mi Calm Calm - -  
1:00 PM 86.0 °F 84.5 °F 55.4 °F 35% 29.89 in - Variable 3.5 mph - N/A   Clear
2:00 PM 89.6 °F 87.7 °F 55.4 °F 31% 29.86 in - Variable 3.5 mph - N/A   Clear
3:00 PM 91.4 °F 89.4 °F 55.4 °F 29% 29.83 in - Variable 3.5 mph - N/A   Clear
4:00 PM 92 °F - 64 °F 29% 29.78 in 7 mi Calm Calm - -  
4:00 PM 91.4 °F 89.4 °F 55.4 °F 29% 29.80 in - Variable 2.3 mph - N/A   Clear
6:00 PM 84.2 °F 83.0 °F 55.4 °F 37% 29.80 in - Variable 1.2 mph - N/A   Clear
7:00 PM 80 °F - 66 °F 53% 29.82 in 7 mi Calm Calm - -  
7:00 PM 75.2 °F - 62.6 °F 65% 29.83 in - Variable 3.5 mph - N/A   Clear
8:00 PM 69.8 °F - 64.4 °F 83% 29.86 in - Variable 2.3 mph - N/A   Clear
10:00 PM 71 °F - 64 °F 72% 29.90 in 7 mi Calm Calm - -